IBE24L GCTS-LEMD

Flight info

Callsign IBE24L
Flight time 2h 22m
Altitude 34000
Route VASTO UN858 DIMSA/N0444F360 UN858 AKUDA DCT PESAS N858 PARKA Z165 SOTUK
Aircraft A321/M-SDE3FGHIRWY/LB1

Departure

Time 2026-05-04 07:56
Airport Tenerife Sur Airport (GCTS)

Arrival

Time 2026-05-04 10:19
Airport Adolfo Suárez Madrid–Barajas Airport (LEMD)
Time Latitude Longitude Altitude Speed Heading
2026-05-04 07:29 28.04679 -16.57787 212 ft 0 kts 339°
2026-05-04 07:45 28.04672 -16.57785 207 ft 2 kts 339°
2026-05-04 07:45 28.04660 -16.57779 212 ft 2 kts 339°
2026-05-04 07:45 28.04647 -16.57774 213 ft 2 kts 339°
2026-05-04 07:45 28.04635 -16.57768 211 ft 2 kts 339°
2026-05-04 07:46 28.04622 -16.57763 209 ft 2 kts 330°
2026-05-04 07:46 28.04612 -16.57754 211 ft 2 kts 299°
2026-05-04 07:46 28.04607 -16.57741 211 ft 2 kts 274°
2026-05-04 07:46 28.04607 -16.57729 212 ft 0 kts 255°
2026-05-04 07:49 28.04602 -16.57749 211 ft 7 kts 255°
2026-05-04 07:50 28.04575 -16.57832 209 ft 13 kts 245°
2026-05-04 07:50 28.04540 -16.57918 204 ft 12 kts 245°
2026-05-04 07:50 28.04513 -16.58000 203 ft 11 kts 249°
2026-05-04 07:50 28.04488 -16.58075 202 ft 10 kts 249°
2026-05-04 07:51 28.04465 -16.58144 201 ft 9 kts 249°
2026-05-04 07:51 28.04443 -16.58209 208 ft 8 kts 239°
2026-05-04 07:51 28.04406 -16.58212 198 ft 4 kts 168°
2026-05-04 07:51 28.04382 -16.58202 207 ft 3 kts 159°
2026-05-04 07:52 28.04355 -16.58190 199 ft 8 kts 159°
2026-05-04 07:52 28.04292 -16.58212 206 ft 14 kts 246°
2026-05-04 07:52 28.04252 -16.58344 201 ft 19 kts 252°
2026-05-04 07:52 28.04206 -16.58479 195 ft 18 kts 249°
2026-05-04 07:53 28.04168 -16.58607 198 ft 17 kts 253°
2026-05-04 07:54 28.03946 -16.58708 195 ft 16 kts 103°
2026-05-04 07:55 28.03957 -16.58643 198 ft 0 kts 66°
2026-05-04 07:55 28.03981 -16.58581 204 ft 34 kts 66°
2026-05-04 07:55 28.04156 -16.58088 197 ft 98 kts 68°
2026-05-04 07:56 28.04475 -16.57177 208 ft 146 kts 69°
2026-05-04 07:56 28.04885 -16.56020 520 ft 159 kts 69°
2026-05-04 07:56 28.05300 -16.54889 1172 ft 154 kts 66°
2026-05-04 07:56 28.05683 -16.53777 1780 ft 149 kts 68°
2026-05-04 07:57 28.06081 -16.52611 2068 ft 170 kts 66°
2026-05-04 07:57 28.06542 -16.51334 2362 ft 185 kts 65°
2026-05-04 07:57 28.07063 -16.49899 2493 ft 208 kts 66°
2026-05-04 07:57 28.07628 -16.48290 2547 ft 236 kts 67°
2026-05-04 07:58 28.08247 -16.46475 2990 ft 250 kts 67°
2026-05-04 07:58 28.08719 -16.44553 3636 ft 259 kts 83°
2026-05-04 07:58 28.08863 -16.42496 4274 ft 265 kts 85°
2026-05-04 07:58 28.09005 -16.40387 4904 ft 272 kts 85°
2026-05-04 07:59 28.09150 -16.38242 5484 ft 279 kts 85°
2026-05-04 07:59 28.09305 -16.36015 6060 ft 287 kts 85°
2026-05-04 07:59 28.09468 -16.33709 6684 ft 292 kts 85°
2026-05-04 07:59 28.09633 -16.31408 7292 ft 296 kts 85°
2026-05-04 08:00 28.09803 -16.29091 7870 ft 301 kts 85°
2026-05-04 08:00 28.09978 -16.26724 8507 ft 304 kts 85°
2026-05-04 08:00 28.10152 -16.24322 9145 ft 307 kts 85°
2026-05-04 08:02 28.11516 -16.05373 11396 ft 393 kts 85°
2026-05-04 08:02 28.11690 -16.02260 11876 ft 397 kts 90°
2026-05-04 08:02 28.11530 -15.99120 12363 ft 401 kts 95°
2026-05-04 08:03 28.11318 -15.95948 12840 ft 406 kts 95°
2026-05-04 08:03 28.11102 -15.92740 13323 ft 411 kts 95°
2026-05-04 08:03 28.10888 -15.89540 13797 ft 415 kts 95°
2026-05-04 08:03 28.10665 -15.86221 14230 ft 419 kts 95°
2026-05-04 08:04 28.10445 -15.82964 14664 ft 422 kts 95°
2026-05-04 08:04 28.10221 -15.79639 15096 ft 425 kts 95°
2026-05-04 08:04 28.09999 -15.76291 15525 ft 428 kts 95°
2026-05-04 08:04 28.09773 -15.72921 15946 ft 431 kts 95°
2026-05-04 08:05 28.09541 -15.69529 16355 ft 434 kts 95°
2026-05-04 08:05 28.09310 -15.66113 16775 ft 436 kts 95°
2026-05-04 08:05 28.09075 -15.62669 17154 ft 439 kts 95°
2026-05-04 08:05 28.08836 -15.59208 17512 ft 442 kts 96°
2026-05-04 08:06 28.08596 -15.55729 17870 ft 444 kts 95°
2026-05-04 08:06 28.08381 -15.52229 18210 ft 447 kts 92°
2026-05-04 08:06 28.08624 -15.48707 18506 ft 451 kts 79°
2026-05-04 08:06 28.09494 -15.45296 18796 ft 452 kts 66°
2026-05-04 08:08 28.25847 -15.29443 20813 ft 456 kts 29°
2026-05-04 08:08 28.28506 -15.27457 21112 ft 459 kts 29°
2026-05-04 08:10 28.50333 -15.11150 23593 ft 479 kts 30°
2026-05-04 08:11 28.53131 -15.09050 23850 ft 482 kts 30°
2026-05-04 08:11 28.58725 -15.04854 24353 ft 486 kts 29°
2026-05-04 08:11 28.61555 -15.02728 24598 ft 489 kts 29°
2026-05-04 08:12 28.64405 -15.00587 24835 ft 491 kts 29°
2026-05-04 08:12 28.67262 -14.98440 25080 ft 493 kts 29°
2026-05-04 08:12 28.70126 -14.96289 25337 ft 495 kts 29°
2026-05-04 08:12 28.73006 -14.94127 25609 ft 496 kts 29°
2026-05-04 08:13 28.75893 -14.91957 25860 ft 498 kts 29°
2026-05-04 08:13 28.78791 -14.89777 26101 ft 500 kts 29°
2026-05-04 08:13 28.81700 -14.87584 26351 ft 502 kts 29°
2026-05-04 08:13 28.84620 -14.85380 26553 ft 504 kts 29°
2026-05-04 08:14 28.87554 -14.83162 26789 ft 506 kts 29°
2026-05-04 08:14 28.90497 -14.80936 27000 ft 508 kts 29°
2026-05-04 08:14 28.93451 -14.78700 27210 ft 510 kts 29°
2026-05-04 08:16 29.14382 -14.62842 28517 ft 520 kts 29°
2026-05-04 08:16 29.17393 -14.60553 28729 ft 519 kts 29°
2026-05-04 08:16 29.20393 -14.58266 28943 ft 519 kts 29°
2026-05-04 08:17 29.23373 -14.55993 29131 ft 519 kts 29°
2026-05-04 08:17 29.26417 -14.53674 29335 ft 520 kts 29°
2026-05-04 08:17 29.29428 -14.51379 29525 ft 520 kts 29°
2026-05-04 08:17 29.32404 -14.49106 29748 ft 520 kts 29°
2026-05-04 08:19 29.53350 -14.33077 31098 ft 517 kts 29°
2026-05-04 08:19 29.56341 -14.30773 31265 ft 516 kts 28°
2026-05-04 08:20 29.59327 -14.28476 31457 ft 516 kts 28°
2026-05-04 08:20 29.62314 -14.26181 31647 ft 516 kts 28°
2026-05-04 08:20 29.65296 -14.23892 31877 ft 514 kts 28°
2026-05-04 08:20 29.68267 -14.21607 32099 ft 513 kts 28°
2026-05-04 08:21 29.71237 -14.19320 32264 ft 514 kts 28°
2026-05-04 08:21 29.74205 -14.17029 32434 ft 514 kts 28°
2026-05-04 08:21 29.77172 -14.14736 32619 ft 514 kts 28°
2026-05-04 08:21 29.80141 -14.12440 32805 ft 514 kts 28°
2026-05-04 08:22 29.83110 -14.10148 32972 ft 513 kts 28°
2026-05-04 08:22 29.86073 -14.07862 33145 ft 513 kts 28°
2026-05-04 08:24 30.06782 -13.91814 34129 ft 510 kts 28°
2026-05-04 08:24 30.09726 -13.89523 34128 ft 509 kts 28°
2026-05-04 08:24 30.15603 -13.84947 34120 ft 509 kts 28°
2026-05-04 08:25 30.21465 -13.80366 34127 ft 508 kts 28°
2026-05-04 08:25 30.27294 -13.75809 34126 ft 504 kts 28°
2026-05-04 08:27 30.50490 -13.57645 34138 ft 503 kts 28°
2026-05-04 08:28 30.56278 -13.53073 34165 ft 503 kts 29°
2026-05-04 08:28 30.62030 -13.48479 34154 ft 501 kts 29°
2026-05-04 08:29 30.67763 -13.43893 34152 ft 500 kts 29°
2026-05-04 08:31 30.90667 -13.25584 34166 ft 498 kts 29°
2026-05-04 08:33 31.13473 -13.07429 34180 ft 497 kts 29°
2026-05-04 08:35 31.35248 -12.90004 34157 ft 493 kts 30°
2026-05-04 08:35 31.40897 -12.85465 34150 ft 492 kts 30°
2026-05-04 08:37 31.60595 -12.69604 34156 ft 491 kts 30°
2026-05-04 08:38 31.66226 -12.65067 34157 ft 491 kts 30°
2026-05-04 08:38 31.71853 -12.60505 34154 ft 491 kts 30°
2026-05-04 08:40 31.94277 -12.42274 34155 ft 489 kts 31°
2026-05-04 08:41 31.99875 -12.37713 34153 ft 489 kts 31°
2026-05-04 08:41 32.05478 -12.33156 34150 ft 489 kts 31°
2026-05-04 08:42 32.11082 -12.28595 34143 ft 489 kts 31°
2026-05-04 08:42 32.16685 -12.24028 34141 ft 489 kts 31°
2026-05-04 08:43 32.22284 -12.19448 34132 ft 490 kts 31°
2026-05-04 08:43 32.27884 -12.14866 34132 ft 490 kts 31°
2026-05-04 08:44 32.33487 -12.10277 34153 ft 490 kts 31°
2026-05-04 08:46 32.55960 -11.91767 34140 ft 493 kts 31°
2026-05-04 08:46 32.61591 -11.87121 34174 ft 493 kts 30°
2026-05-04 08:47 32.67188 -11.82487 34163 ft 493 kts 30°
2026-05-04 08:47 32.72811 -11.77819 34164 ft 493 kts 30°
2026-05-04 08:48 32.78439 -11.73155 34154 ft 492 kts 30°
2026-05-04 08:48 32.84055 -11.68487 34154 ft 492 kts 30°
2026-05-04 08:49 32.89668 -11.63812 34150 ft 492 kts 30°
2026-05-04 08:50 33.09302 -11.47404 34151 ft 492 kts 30°
2026-05-04 08:51 33.14906 -11.42709 34150 ft 492 kts 30°
2026-05-04 08:51 33.20462 -11.38035 34173 ft 491 kts 30°
2026-05-04 08:52 33.26030 -11.33307 34168 ft 491 kts 30°
2026-05-04 08:52 33.31586 -11.28580 34166 ft 490 kts 30°
2026-05-04 08:54 33.53752 -11.09690 34177 ft 488 kts 30°
2026-05-04 08:55 33.59274 -11.04960 34163 ft 488 kts 30°
2026-05-04 08:55 33.64758 -11.00262 34161 ft 487 kts 30°
2026-05-04 09:01 34.22890 -10.49976 34144 ft 495 kts 28°
2026-05-04 09:01 34.28477 -10.45100 34147 ft 496 kts 28°
2026-05-04 09:02 34.34070 -10.40213 34173 ft 496 kts 29°
2026-05-04 09:02 34.39663 -10.35306 34170 ft 496 kts 29°
2026-05-04 09:03 34.45257 -10.30397 34171 ft 497 kts 29°
2026-05-04 09:03 34.50850 -10.25479 34170 ft 497 kts 29°
2026-05-04 09:04 34.56433 -10.20559 34211 ft 496 kts 29°
2026-05-04 09:04 34.61996 -10.15643 34154 ft 493 kts 29°
2026-05-04 09:05 34.67553 -10.10755 34162 ft 492 kts 29°
2026-05-04 09:05 34.73108 -10.05885 34163 ft 492 kts 29°
2026-05-04 09:06 34.78662 -10.00998 34153 ft 492 kts 29°
2026-05-04 09:08 35.00781 -9.81413 34161 ft 490 kts 29°
2026-05-04 09:08 35.06263 -9.76554 34150 ft 490 kts 29°
2026-05-04 09:09 35.11789 -9.71636 34198 ft 491 kts 29°
2026-05-04 09:09 35.17311 -9.66714 34168 ft 492 kts 29°
2026-05-04 09:10 35.22838 -9.61782 34158 ft 493 kts 29°
2026-05-04 09:10 35.28373 -9.56828 34156 ft 493 kts 29°
2026-05-04 09:11 35.33917 -9.51859 34153 ft 493 kts 29°
2026-05-04 09:11 35.39426 -9.46904 34165 ft 494 kts 29°
2026-05-04 09:12 35.44972 -9.41918 34157 ft 495 kts 29°
2026-05-04 09:14 35.67194 -9.21859 34138 ft 497 kts 29°
2026-05-04 09:14 35.72759 -9.16809 34145 ft 497 kts 29°
2026-05-04 09:15 35.78323 -9.11751 34145 ft 497 kts 29°
2026-05-04 09:15 35.83877 -9.06693 34140 ft 497 kts 29°
2026-05-04 09:17 36.06123 -8.81446 34143 ft 512 kts 44°
2026-05-04 09:18 36.10769 -8.74773 34147 ft 512 kts 44°
2026-05-04 09:18 36.15425 -8.68081 34138 ft 512 kts 44°
2026-05-04 09:19 36.20042 -8.61413 34177 ft 512 kts 44°
2026-05-04 09:19 36.24677 -8.54700 34162 ft 513 kts 44°
2026-05-04 09:20 36.29316 -8.47980 34152 ft 513 kts 44°
2026-05-04 09:20 36.33955 -8.41259 34148 ft 513 kts 44°
2026-05-04 09:21 36.38585 -8.34522 34144 ft 513 kts 44°
2026-05-04 09:21 36.43208 -8.27766 34125 ft 513 kts 45°
2026-05-04 09:22 36.47833 -8.21003 34172 ft 513 kts 45°
2026-05-04 09:22 36.52449 -8.14246 34156 ft 512 kts 45°
2026-05-04 09:23 36.57060 -8.07487 34151 ft 511 kts 45°
2026-05-04 09:23 36.61654 -8.00743 34139 ft 511 kts 45°
2026-05-04 09:25 36.77678 -7.77089 34281 ft 509 kts 45°
2026-05-04 09:25 36.79955 -7.73719 34492 ft 509 kts 46°
2026-05-04 09:26 36.82231 -7.70338 34682 ft 509 kts 46°
2026-05-04 09:26 36.84505 -7.66954 34861 ft 509 kts 46°
2026-05-04 09:26 36.86784 -7.63561 35028 ft 509 kts 46°
2026-05-04 09:26 36.89059 -7.60176 35208 ft 509 kts 46°
2026-05-04 09:27 36.91337 -7.56788 35340 ft 510 kts 46°
2026-05-04 09:27 36.93612 -7.53399 35485 ft 510 kts 46°
2026-05-04 09:27 36.95898 -7.49990 35640 ft 510 kts 46°
2026-05-04 09:27 36.98178 -7.46586 35791 ft 510 kts 46°
2026-05-04 09:28 37.00454 -7.43176 35993 ft 510 kts 46°
2026-05-04 09:28 37.02727 -7.39767 36104 ft 510 kts 46°
2026-05-04 09:28 37.07274 -7.32961 36116 ft 508 kts 46°
2026-05-04 09:29 37.11839 -7.26185 36107 ft 508 kts 46°
2026-05-04 09:29 37.16368 -7.19459 36109 ft 509 kts 46°
2026-05-04 09:30 37.20935 -7.12651 36108 ft 510 kts 46°
2026-05-04 09:30 37.25506 -7.05819 36110 ft 510 kts 46°
2026-05-04 09:31 37.30063 -6.98979 36136 ft 510 kts 46°
2026-05-04 09:31 37.34621 -6.92120 36127 ft 510 kts 46°
2026-05-04 09:32 37.39145 -6.85307 36111 ft 510 kts 46°
2026-05-04 09:34 37.57353 -6.57744 36110 ft 512 kts 46°
2026-05-04 09:34 37.61901 -6.50823 36095 ft 512 kts 46°
2026-05-04 09:35 37.66457 -6.43879 36078 ft 513 kts 47°
2026-05-04 09:35 37.71004 -6.36935 36069 ft 513 kts 47°
2026-05-04 09:37 37.89140 -6.09075 36083 ft 514 kts 47°
2026-05-04 09:38 37.93735 -6.02137 36061 ft 512 kts 41°
2026-05-04 09:38 37.99231 -5.96593 36054 ft 501 kts 26°
2026-05-04 09:39 38.05146 -5.91896 36100 ft 502 kts 26°
2026-05-04 09:39 38.11057 -5.87154 36085 ft 503 kts 27°
2026-05-04 09:40 38.16968 -5.82388 36076 ft 503 kts 27°
2026-05-04 09:40 38.22871 -5.77619 36067 ft 503 kts 27°
2026-05-04 09:42 38.46469 -5.58528 36052 ft 504 kts 27°
2026-05-04 09:43 38.52413 -5.53680 36071 ft 504 kts 27°
2026-05-04 09:43 38.58281 -5.48878 36075 ft 504 kts 27°
2026-05-04 09:44 38.64210 -5.44049 36068 ft 504 kts 27°
2026-05-04 09:46 38.87914 -5.24867 36039 ft 505 kts 27°
2026-05-04 09:46 38.93848 -5.20023 36037 ft 506 kts 27°
2026-05-04 09:47 38.99473 -5.14522 36036 ft 513 kts 43°
2026-05-04 09:49 39.13253 -4.87443 36023 ft 519 kts 57°
2026-05-04 09:49 39.15147 -4.83488 36024 ft 519 kts 56°
2026-05-04 09:51 39.35249 -4.66380 36029 ft 499 kts 17°
2026-05-04 09:51 39.41677 -4.62988 36022 ft 499 kts 16°
2026-05-04 09:52 39.48111 -4.59605 36023 ft 499 kts 16°
2026-05-04 09:52 39.54552 -4.56225 36024 ft 500 kts 17°
2026-05-04 09:53 39.60999 -4.52825 36011 ft 501 kts 17°
2026-05-04 09:53 39.67454 -4.49411 36004 ft 501 kts 17°
2026-05-04 09:54 39.73915 -4.45995 36027 ft 502 kts 17°
2026-05-04 09:54 39.80380 -4.42570 36016 ft 502 kts 17°
2026-05-04 09:55 39.86812 -4.39158 36013 ft 502 kts 17°
2026-05-04 09:55 39.93327 -4.35687 35773 ft 503 kts 17°
2026-05-04 09:55 39.96545 -4.34099 35402 ft 499 kts 11°
2026-05-04 09:56 39.99903 -4.33056 34645 ft 493 kts
2026-05-04 09:56 40.03309 -4.32336 33741 ft 497 kts
2026-05-04 09:56 40.06737 -4.31608 32811 ft 500 kts
2026-05-04 09:56 40.10176 -4.30867 31885 ft 503 kts
2026-05-04 09:57 40.13634 -4.30109 30993 ft 505 kts
2026-05-04 09:57 40.17112 -4.29337 29996 ft 508 kts
2026-05-04 09:57 40.20621 -4.28556 28830 ft 512 kts
2026-05-04 09:57 40.24109 -4.27778 28122 ft 505 kts
2026-05-04 09:58 40.27540 -4.27010 27492 ft 497 kts
2026-05-04 09:58 40.30939 -4.26252 26823 ft 491 kts
2026-05-04 09:58 40.34285 -4.25507 26181 ft 486 kts
2026-05-04 10:00 40.56585 -4.25534 21874 ft 434 kts 354°
2026-05-04 10:00 40.59567 -4.25615 21550 ft 420 kts 354°
2026-05-04 10:02 40.76285 -4.20878 20535 ft 338 kts 54°
2026-05-04 10:04 40.84904 -4.04503 17663 ft 313 kts 54°
2026-05-04 10:04 40.86138 -4.02149 17152 ft 309 kts 54°
2026-05-04 10:04 40.87354 -3.99826 16655 ft 307 kts 54°
2026-05-04 10:04 40.88564 -3.97519 16173 ft 304 kts 54°
2026-05-04 10:05 40.89769 -3.95228 15705 ft 302 kts 54°
2026-05-04 10:05 40.90960 -3.92963 15257 ft 298 kts 54°
2026-05-04 10:05 40.92136 -3.90720 14779 ft 296 kts 55°
2026-05-04 10:05 40.93299 -3.88496 14388 ft 291 kts 55°
2026-05-04 10:06 40.94442 -3.86309 14018 ft 288 kts 55°
2026-05-04 10:06 40.95581 -3.84128 13632 ft 287 kts 55°
2026-05-04 10:06 40.96688 -3.81953 13242 ft 284 kts 61°
2026-05-04 10:08 40.97233 -3.67180 11144 ft 262 kts 103°
2026-05-04 10:08 40.96767 -3.64882 10776 ft 257 kts 114°
2026-05-04 10:08 40.96186 -3.62644 10447 ft 256 kts 114°
2026-05-04 10:08 40.95470 -3.60523 10094 ft 249 kts 129°
2026-05-04 10:09 40.94305 -3.58911 9733 ft 239 kts 150°
2026-05-04 10:09 40.92851 -3.57954 9411 ft 231 kts 168°
2026-05-04 10:09 40.91286 -3.57687 9093 ft 224 kts 184°
2026-05-04 10:09 40.89743 -3.57692 8785 ft 224 kts 183°
2026-05-04 10:10 40.88181 -3.57688 8492 ft 224 kts 185°
2026-05-04 10:10 40.86635 -3.57679 8370 ft 222 kts 184°
2026-05-04 10:10 40.85076 -3.57671 8288 ft 226 kts 184°
2026-05-04 10:10 40.83507 -3.57662 8053 ft 225 kts 184°
2026-05-04 10:11 40.81946 -3.57652 7769 ft 224 kts 185°
2026-05-04 10:11 40.80389 -3.57643 7470 ft 223 kts 185°
2026-05-04 10:11 40.78831 -3.57634 7179 ft 224 kts 184°
2026-05-04 10:11 40.77268 -3.57626 6889 ft 225 kts 184°
2026-05-04 10:12 40.75704 -3.57616 6601 ft 224 kts 185°
2026-05-04 10:12 40.74167 -3.57606 6306 ft 222 kts 184°
2026-05-04 10:12 40.72651 -3.57597 6018 ft 213 kts 183°
2026-05-04 10:12 40.71205 -3.57587 5721 ft 203 kts 184°
2026-05-04 10:13 40.69817 -3.57579 5452 ft 196 kts 183°
2026-05-04 10:13 40.68472 -3.57572 5202 ft 191 kts 182°
2026-05-04 10:13 40.67158 -3.57564 4946 ft 187 kts 185°
2026-05-04 10:13 40.65852 -3.57557 4684 ft 184 kts 185°
2026-05-04 10:14 40.64574 -3.57551 4446 ft 186 kts 182°
2026-05-04 10:14 40.63280 -3.57543 4201 ft 184 kts 185°
2026-05-04 10:16 40.55565 -3.57498 2690 ft 143 kts 183°
2026-05-04 10:16 40.54581 -3.57492 2500 ft 140 kts 184°
2026-05-04 10:16 40.53613 -3.57479 2305 ft 138 kts 180°
2026-05-04 10:16 40.52652 -3.57474 2091 ft 138 kts 184°
2026-05-04 10:17 40.51709 -3.57471 1982 ft 130 kts 180°
2026-05-04 10:17 40.50974 -3.57476 1982 ft 79 kts 179°
2026-05-04 10:19 40.49834 -3.57688 1980 ft 21 kts 181°
2026-05-04 10:19 40.49738 -3.57768 1983 ft 17 kts 268°
2026-05-04 10:19 40.49737 -3.57919 1980 ft 16 kts 269°
2026-05-04 10:19 40.49736 -3.58067 1980 ft 16 kts 270°
2026-05-04 10:20 40.49736 -3.58211 1980 ft 16 kts 270°
2026-05-04 10:20 40.49736 -3.58351 1980 ft 15 kts 270°
2026-05-04 10:20 40.49736 -3.58488 1980 ft 15 kts 270°
2026-05-04 10:20 40.49736 -3.58622 1981 ft 14 kts 269°
2026-05-04 10:21 40.49735 -3.58746 1983 ft 12 kts 269°
2026-05-04 10:21 40.49696 -3.58825 1980 ft 10 kts 197°
2026-05-04 10:21 40.49653 -3.58866 1980 ft 7 kts 269°
2026-05-04 10:21 40.49621 -3.58902 1980 ft 7 kts 201°
2026-05-04 10:22 40.49605 -3.58987 1984 ft 4 kts 272°
2026-05-04 10:22 40.49605 -3.58999 1980 ft 0 kts 269°